星链-31240 (STARLINK-31240 )

导读

STARLINK-31240是美国SpaceX公司星链(Starlink)星座项目中的第二代低轨通信卫星,于2024年2月25日发射入轨。星链项目旨在构建全球覆盖的低轨卫星互联网,为全球提供高速宽带服务,STARLINK-31240延续第二代星链设计,搭载激光星间链路,可实现卫星间直接通信,优化全球网络传输效率,进一步扩充星链星座规模,推动卫星互联网的全球覆盖能力。

Basic Information
目录编号:
59041
目录名称:
STARLINK-31240
国际标识:
2024-038U
轨道中心:
EARTH
卫星名称:
星链-31240
卫星全名:
星链-31240 (STARLINK-31240 )
卫星状态:
在轨 (已飞行844 天)
发射日期:
2024-02-25 UTC
国别 :
美国 (US)
星等 :
--
Orbit Information
数据来源 国际轨道数据 AOE轨道数据
星历时间 2026-06-17T01:45:59+0800
1天前
查看轨道信息
2026-06-15T06:00:00+0800
3天前
查看轨道信息
半长轴 6861.199km 6861.216km
偏心率 0.0001303 0.0001208
轨道倾角 43.001° 42.998°
近地点辐角 276.536° 258.735°
升交点赤经 184.446° 194.748°
平近点角 83.535° 141.064°
近地点 482.167km 482.25km
远地点 483.957km 483.908km
周期 94.267分钟 94.267分钟
每日圈数 15.275759 15.275701
Detailed Information
固有亮度:
5
最大亮度:
0.3
卫星平台:
Starlink v2.0 mini
覆盖范围:
全球
运营商:
太空探索技术公司
运营商所在国:
美国
制造商(研发单位):
太空探索技术公司
制造商所在国:
美国
使用方式:
暂无
Satellite Introduction
星链(Starlink)计划是由太空探索技术公司(SpaceX)提出的一个巨型低轨卫星互联网星座项目,计划在2019年至2024年间在太空搭建由约1.2万颗卫星组成的“星链”网络,其中1584颗将部署在地球上空550千米处的近地轨道,并从2020年开始工作。该卫星仍在工作。
2D Orbit Map
3D Orbit Map
Orbit Altitude Analysis Chart
Orbit Inclination Analysis Chart
Orbit Comprehensive Analysis Chart
View Comprehensive Chart